SCP
0 0 -0 -0 -1 -1 -0 0 0 0 0 0 0 0 0 0 0 0 0 0 0 0 -0 -0 -0 -0 -0 -0 -0 -0 -0 0 0 0 0 0 0 0 0 0 0 0 0
0 0 0 -0 -0 -1 -0 0 0 0 0 0 0 0 0 0 0 0 0 0 0 0 0 0 0 0 0 -0 -0 -0 -0 0 0 0 0 0 0 0 0 0 0 0 0
0 0 0 0 -0 -0 -0 0 0 0 0 0 0 0 0 0 0 0 0 0 -0 -0 -0 0 0 0 0 0 0 0 0 0 0 0 0 0 0 0 0 0 0 0 0
0 0 0 0 -0 -0 -0 0 0 0 0 0 0 0 0 0 0 0 0 0 -0 -0 -0 0 0 0 0 0 0 0 0 0 0 0 0 0 0 0 0 0 0 0 0
0 0 0 0 0 -0 -0 -0 0 0 0 0 0 0 0 0 0 0 0 -0 -0 -0 -0 0 0 0 0 0 0 0 0 0 -0 0 0 0 0 0 0 0 0 0 0
0 0 1 1 0 0 0 0 0 0 0 0 0 0 0 0 0 0 -0 -0 -0 -0 0 0 0 0 0 0 0 0 0 0 -0 0 0 0 0 1 0 0 1 0 0
0 0 1 1 1 0 0 0 0 0 -0 -0 -0 -0 0 0 0 -0 -0 -0 -0 -0 0 0 0 0 0 0 0 0 0 0 0 0 0 0 0 1 1 1 0 1 1
0 0 1 1 1 1 0 0 0 0 0 -0 -0 -0 -0 -0 -0 -0 -0 -0 -0 -0 -0 0 0 0 0 0 0 0 0 0 0 0 0 0 0 1 1 1 1 1 1
0 1 1 1 2 1 0 0 0 0 0 -0 -0 -0 -0 -0 -0 0 0 0 -0 0 -0 0 0 0 0 0 0 0 0 0 0 0 0 0 1 1 1 1 1 1 1
1 1 1 1 2 2 1 1 0 0 0 0 0 -0 -0 -0 -0 -0 0 0 0 0 0 0 0 0 0 0 0 0 0 0 0 0 0 0 1 1 1 1 1 1 1
1 1 1 1 1 1 1 1 1 0 0 0 0 0 0 -0 -0 -0 0 0 0 0 0 0 0 0 0 0 0 0 0 0 0 0 0 0 1 1 1 1 1 1 1
-0 1 0 0 1 1 1 1 1 1 1 0 0 0 0 0 0 0 0 0 0 0 0 0 0 -0 -0 0 0 0 0 0 0 0 0 0 1 1 1 1 1 1 1
0 -0 0 0 0 1 1 1 1 1 0 0 0 0 0 0 0 0 0 0 0 0 0 0 0 0 0 0 0 0 0 0 0 0 0 1 1 1 1 1 1 1 1
0 0 0 0 0 0 1 1 1 0 0 0 0 0 0 0 0 0 0 0 0 0 0 0 0 0 0 0 0 0 0 0 0 0 0 1 1 1 1 0 1 1 1
0 0 2 1 0 1 2 2 1 0 0 0 0 0 0 0 0 0 0 0 0 0 0 0 0 0 0 0 0 0 0 0 0 0 0 1 1 1 1 0 0 1 1
0 0 0 1 1 1 2 2 1 2 0 0 0 0 0 1 0 0 0 0 0 0 0 0 0 0 0 0 0 0 0 0 0 0 0 1 1 1 0 1 1 1 0
0 0 1 2 2 2 3 3 3 1 2 1 1 0 1 0 0 1 1 0 0 0 0 0 0 0 0 0 0 0 0 0 0 0 0 0 0 1 0 1 1 1 1
0 0 0 2 2 2 2 3 3 2 1 1 1 1 1 1 1 1 1 1 0 0 0 0 0 0 0 0 0 0 0 0 0 0 0 0 0 0 0 0 1 0 1
0 0 0 0 3 3 2 1 2 1 3 1 1 1 2 2 2 2 2 1 1 0 0 0 0 0 0 0 0 0 0 0 0 0 0 0 0 1 0 0 0 0 0
0 0 0 1 4 4 5 6 8 4 2 1 1 0 1 2 2 2 2 1 1 0 0 0 0 0 0 0 0 0 0 0 0 1 1 1 1 1 1 0 1 0 0
0 0 0 0 0 4 8 6 1 9 1 2 3 2 1 1 1 2 1 1 1 1 0 0 0 0 0 0 0 0 0 0 0 1 1 1 1 1 1 1 1 1 1
0 0 0 1 1 0 0 0 1 2 3 1 0 1 3 1 1 1 2 2 1 1 0 0 0 0 0 0 1 0 0 0 0 0 1 1 1 1 1 1 1 1 1
0 0 0 0 0 0 0 0 0 0 0 0 0 1 2 2 1 1 2 2 2 1 1 0 1 0 0 1 1 1 1 0 -0 0 0 0 1 1 1 1 1 1 1
0 0 0 0 0 0 0 0 0 0 0 0 0 0 0 0 1 1 1 2 1 1 1 0 0 1 1 0 1 2 1 1 0 -0 0 0 0 1 1 1 1 1 1
0 0 0 0 0 0 0 0 0 0 0 0 0 0 0 0 1 3 1 1 1 1 2 1 0 1 1 1 1 1 1 0 1 0 0 0 1 0 1 0 0 0 0
0 0 0 0 0 0 0 0 0 0 0 0 0 0 0 0 0 0 1 1 1 1 2 1 1 0 0 -0 1 2 0 1 1 1 0 0 1 0 0 0 0 0 0
Wind_Speed_500mb
24 32 45 47 50 51 48 42 39 38 38 40 42 46 46 41 37 32 29 26 24 22 22 22 21 20 18 16 14 14 17 19 20 23 26 32 27 17 11 12 16 14 11
18 30 44 48 51 54 51 45 42 39 39 41 43 45 44 40 36 32 29 26 24 22 22 21 20 19 18 17 16 17 20 23 24 20 20 23 29 33 20 12 11 12 11
11 27 44 51 52 56 56 51 46 43 40 39 40 41 39 36 34 30 26 24 23 22 19 18 17 18 17 16 16 16 19 21 23 24 20 18 20 26 26 17 11 9 8
0 14 40 53 57 59 60 55 49 45 41 39 39 38 37 34 31 28 25 22 20 18 16 15 13 13 14 13 13 14 15 16 17 21 17 13 10 23 22 18 15 8 5
11 11 36 53 60 60 61 59 52 46 41 39 37 35 33 31 28 25 22 20 17 15 12 10 8 8 9 8 9 10 11 13 16 17 12 4 14 21 18 20 17 13 9
16 16 38 54 60 61 58 55 52 46 40 38 36 33 31 27 24 21 18 16 13 11 8 5 4 3 4 5 5 6 6 7 13 12 5 5 22 26 19 23 19 15 13
24 25 32 54 61 61 60 58 53 48 41 36 34 31 29 25 22 18 14 11 8 5 3 2 2 2 3 5 6 6 3 1 6 4 6 10 26 27 24 29 20 17 14
28 36 29 55 63 64 59 56 54 50 44 40 34 32 29 26 21 17 12 8 5 1 3 5 7 8 8 9 10 11 9 8 6 13 6 4 24 29 29 29 26 19 16
21 48 33 54 66 67 63 57 55 50 46 41 38 34 31 27 23 19 14 10 7 5 7 9 12 13 13 14 15 16 16 15 13 15 17 16 17 29 29 33 32 24 18
10 46 36 48 63 67 66 60 55 51 47 41 37 35 32 29 25 20 16 12 11 11 12 15 17 19 19 19 20 20 20 19 19 20 17 20 22 32 34 36 36 31 23
19 45 36 34 54 62 63 60 58 53 49 45 40 37 34 31 26 22 18 16 15 16 18 21 23 25 27 26 24 23 19 13 21 18 16 20 23 24 37 40 41 36 28
19 29 38 31 33 57 63 60 58 58 53 48 44 40 36 33 28 24 21 20 20 20 22 27 26 27 30 28 26 23 10 11 13 20 9 19 24 35 39 38 40 41 32
16 1 39 32 26 49 67 59 54 55 54 52 48 44 41 37 33 30 25 18 15 12 17 18 15 19 17 15 17 18 16 15 13 13 19 29 23 33 34 36 41 43 33
11 13 31 30 23 30 57 53 30 38 51 52 51 48 46 43 40 34 27 17 13 13 15 21 17 14 15 14 16 19 23 24 27 26 27 32 30 27 35 37 42 43 33
15 10 31 29 24 29 36 34 35 32 31 41 51 50 48 46 43 36 30 25 24 23 19 23 28 27 25 22 25 23 23 21 21 31 48 48 44 45 43 39 39 36 31
25 23 24 31 32 37 41 30 22 34 33 20 33 38 43 42 43 38 34 36 32 29 26 24 30 37 37 34 32 29 31 29 30 27 25 36 38 42 39 33 28 24 25
36 39 27 30 24 31 42 49 48 24 32 40 34 22 29 31 33 36 41 41 35 31 37 38 34 38 40 41 37 36 32 31 33 32 30 28 28 36 42 37 28 26 24
45 52 46 38 32 16 7 48 55 52 40 46 44 38 34 33 36 35 38 42 38 34 31 36 38 39 50 54 48 39 33 34 36 38 37 35 31 26 26 28 23 27 21
39 54 56 60 51 49 32 8 18 65 54 52 49 52 45 33 45 47 45 44 45 42 40 39 41 45 45 44 36 32 36 40 41 40 43 41 34 33 25 25 30 27 32
43 53 58 58 56 58 61 56 32 20 52 65 61 62 50 40 35 46 48 51 48 51 54 46 45 51 51 45 43 36 38 44 45 48 47 51 37 34 26 20 25 30 27
49 58 62 59 54 54 59 55 59 43 33 30 27 34 61 67 47 42 46 49 49 51 54 50 48 53 53 46 41 43 45 51 55 52 48 55 43 35 27 32 37 40 24
60 53 48 41 51 56 56 60 61 66 66 29 26 26 13 35 54 53 40 48 47 46 51 51 56 55 54 50 42 41 38 48 49 40 42 54 46 38 37 35 39 34 27
62 57 52 47 40 47 61 65 59 55 63 72 57 48 43 38 34 39 30 32 27 27 41 45 58 58 54 53 45 30 19 15 46 51 38 35 36 32 36 33 41 31 27
45 34 29 33 42 37 31 50 66 69 74 74 88 64 64 50 62 59 54 38 39 32 36 30 41 57 46 53 41 42 43 47 45 62 52 39 35 33 32 38 43 35 32
33 24 15 23 30 37 34 39 41 44 53 58 63 86 69 61 58 45 49 46 45 42 45 44 37 39 45 40 42 36 48 47 61 59 67 52 52 47 36 41 36 41 38
33 24 25 33 40 31 37 38 41 42 47 50 63 56 67 76 65 54 58 58 62 65 70 60 47 37 38 31 37 38 46 58 60 64 66 65 51 42 29 36 38 34 34
Wind_Direction_500mb
150 149 147 147 144 142 140 139 135 132 131 131 130 135 140 139 138 136 132 126 121 112 103 99 98 98 99 100 102 98 91 84 83 83 80 62 47 40 42 31 47 41 38
135 157 151 150 147 143 142 141 138 136 134 133 131 132 134 134 132 130 127 123 115 106 98 94 92 89 83 79 74 74 77 78 79 79 78 57 41 28 13 13 25 16 12
89 164 157 153 151 147 146 145 144 143 142 139 133 133 133 132 129 127 124 118 112 106 100 91 87 83 77 72 68 69 75 80 79 69 52 43 39 13 7 2 1 6 1
109 181 167 158 156 154 151 151 151 149 149 144 139 137 135 133 132 130 127 122 114 106 98 90 81 78 75 66 64 66 76 86 84 70 49 10 10 347 354 358 2 353 353
224 195 181 164 160 159 158 157 157 157 156 151 147 144 142 140 140 136 133 125 118 110 101 92 78 68 65 58 54 64 83 100 103 96 72 59 350 310 341 346 355 354 346
222 192 186 170 165 164 165 164 163 164 163 161 157 154 150 150 147 143 139 131 125 118 112 99 88 58 38 20 20 38 73 119 122 117 120 261 307 303 322 340 339 338 338
222 200 187 177 170 169 171 171 170 170 170 169 167 164 161 161 159 155 151 143 132 119 92 34 346 336 343 329 334 331 338 221 183 152 173 212 289 316 319 328 325 321 323
229 204 186 184 175 175 177 180 178 176 178 176 177 176 174 175 174 171 170 172 167 186 314 313 311 310 312 309 311 306 299 286 260 197 233 289 287 303 311 318 320 310 307
224 185 180 189 180 180 180 186 186 185 186 187 184 185 186 189 189 189 191 203 226 256 290 298 304 301 301 303 301 304 303 298 289 264 244 263 278 290 297 312 316 303 295
230 180 179 190 190 186 185 186 193 193 193 198 195 194 197 200 202 205 210 223 247 268 284 292 294 296 299 302 303 308 307 315 318 289 250 257 286 280 290 297 313 304 288
171 191 186 193 199 196 192 189 193 198 201 203 207 206 206 210 212 219 231 246 261 276 283 288 293 299 303 306 305 307 310 347 355 326 234 230 270 280 297 299 306 304 286
85 195 191 192 200 209 203 198 198 201 205 208 211 215 215 218 222 232 241 257 264 275 291 288 292 298 302 307 310 301 291 327 343 2 272 291 301 270 288 293 301 306 286
54 329 226 202 212 212 212 206 208 209 211 212 215 216 220 222 227 233 242 255 280 295 332 319 312 305 291 313 330 312 307 312 305 297 301 306 306 280 289 295 305 305 283
349 69 192 207 186 193 211 212 220 232 227 224 222 221 223 226 230 237 249 264 284 286 310 317 318 324 299 313 327 330 328 324 306 292 293 289 292 285 289 299 305 302 281
180 57 190 183 171 162 183 209 218 233 244 245 234 231 228 229 233 233 241 250 258 271 281 298 311 312 314 323 316 322 314 316 307 280 265 266 275 279 284 297 302 306 278
182 201 159 177 178 180 187 186 199 225 234 240 236 238 239 240 239 240 235 236 250 262 271 280 289 298 306 302 303 313 316 309 314 310 290 268 268 274 279 286 296 317 295
219 207 218 206 186 200 199 215 215 206 211 232 239 240 243 241 246 243 238 238 242 245 246 261 274 284 279 279 292 296 301 310 311 321 315 300 294 279 274 273 289 294 302
226 216 218 229 210 183 157 222 220 221 197 200 212 220 233 244 249 250 250 249 250 248 245 248 255 263 265 271 277 280 297 310 305 314 311 303 305 299 280 263 278 278 289
236 226 231 237 228 226 220 186 273 235 223 220 216 218 227 239 250 255 255 256 252 251 251 257 263 267 273 274 278 291 301 301 296 303 306 299 304 298 299 281 279 289 290
235 223 221 217 210 226 238 234 209 272 241 250 243 232 222 230 240 254 258 261 253 248 250 252 258 266 275 281 283 286 289 289 284 286 293 288 298 290 280 283 276 288 301
224 208 210 212 206 211 219 221 226 202 257 237 216 233 237 237 236 245 257 261 264 253 249 249 251 259 265 276 275 279 283 290 282 282 284 280 285 281 269 276 274 270 287
219 217 211 206 199 204 209 213 219 220 216 257 247 235 222 229 234 246 265 269 264 258 251 255 257 256 263 264 270 282 296 302 312 288 283 275 273 271 260 274 266 267 283
207 207 215 222 217 214 214 212 212 212 218 216 241 236 250 267 268 257 258 274 267 270 259 255 260 255 261 271 265 262 275 301 316 312 301 276 270 265 250 262 268 265 263
190 192 203 216 224 233 235 222 224 227 220 224 237 253 259 270 264 254 262 252 260 279 258 252 248 252 257 272 273 253 266 264 285 294 296 281 269 262 260 258 265 262 258
180 193 224 250 244 244 243 248 250 244 245 243 227 234 245 242 239 244 246 237 251 272 276 267 257 256 262 296 269 254 248 262 287 271 278 279 270 267 265 256 259 247 258
180 208 236 229 243 258 257 251 252 257 258 256 249 233 233 256 255 247 243 249 260 270 272 272 265 252 271 296 264 258 245 265 277 273 270 275 270 271 272 257 250 246 248
Wind_Speed_850mb
24 32 45 47 50 51 48 42 39 38 38 40 42 46 46 41 37 32 29 26 24 22 22 22 21 20 18 16 14 14 17 19 20 23 26 32 27 17 11 12 16 14 11
18 30 44 48 51 54 51 45 42 39 39 41 43 45 44 40 36 32 29 26 24 22 22 21 20 19 18 17 16 17 20 23 24 20 20 23 29 33 20 12 11 12 11
11 27 44 51 52 56 56 51 46 43 40 39 40 41 39 36 34 30 26 24 23 22 19 18 17 18 17 16 16 16 19 21 23 24 20 18 20 26 26 17 11 9 8
0 14 40 53 57 59 60 55 49 45 41 39 39 38 37 34 31 28 25 22 20 18 16 15 13 13 14 13 13 14 15 16 17 21 17 13 10 23 22 18 15 8 5
11 11 36 53 60 60 61 59 52 46 41 39 37 35 33 31 28 25 22 20 17 15 12 10 8 8 9 8 9 10 11 13 16 17 12 4 14 21 18 20 17 13 9
16 16 38 54 60 61 58 55 52 46 40 38 36 33 31 27 24 21 18 16 13 11 8 5 4 3 4 5 5 6 6 7 13 12 5 5 22 26 19 23 19 15 13
24 25 32 54 61 61 60 58 53 48 41 36 34 31 29 25 22 18 14 11 8 5 3 2 2 2 3 5 6 6 3 1 6 4 6 10 26 27 24 29 20 17 14
28 36 29 55 63 64 59 56 54 50 44 40 34 32 29 26 21 17 12 8 5 1 3 5 7 8 8 9 10 11 9 8 6 13 6 4 24 29 29 29 26 19 16
21 48 33 54 66 67 63 57 55 50 46 41 38 34 31 27 23 19 14 10 7 5 7 9 12 13 13 14 15 16 16 15 13 15 17 16 17 29 29 33 32 24 18
10 46 36 48 63 67 66 60 55 51 47 41 37 35 32 29 25 20 16 12 11 11 12 15 17 19 19 19 20 20 20 19 19 20 17 20 22 32 34 36 36 31 23
19 45 36 34 54 62 63 60 58 53 49 45 40 37 34 31 26 22 18 16 15 16 18 21 23 25 27 26 24 23 19 13 21 18 16 20 23 24 37 40 41 36 28
19 29 38 31 33 57 63 60 58 58 53 48 44 40 36 33 28 24 21 20 20 20 22 27 26 27 30 28 26 23 10 11 13 20 9 19 24 35 39 38 40 41 32
16 1 39 32 26 49 67 59 54 55 54 52 48 44 41 37 33 30 25 18 15 12 17 18 15 19 17 15 17 18 16 15 13 13 19 29 23 33 34 36 41 43 33
11 13 31 30 23 30 57 53 30 38 51 52 51 48 46 43 40 34 27 17 13 13 15 21 17 14 15 14 16 19 23 24 27 26 27 32 30 27 35 37 42 43 33
15 10 31 29 24 29 36 34 35 32 31 41 51 50 48 46 43 36 30 25 24 23 19 23 28 27 25 22 25 23 23 21 21 31 48 48 44 45 43 39 39 36 31
25 23 24 31 32 37 41 30 22 34 33 20 33 38 43 42 43 38 34 36 32 29 26 24 30 37 37 34 32 29 31 29 30 27 25 36 38 42 39 33 28 24 25
36 39 27 30 24 31 42 49 48 24 32 40 34 22 29 31 33 36 41 41 35 31 37 38 34 38 40 41 37 36 32 31 33 32 30 28 28 36 42 37 28 26 24
45 52 46 38 32 16 7 48 55 52 40 46 44 38 34 33 36 35 38 42 38 34 31 36 38 39 50 54 48 39 33 34 36 38 37 35 31 26 26 28 23 27 21
39 54 56 60 51 49 32 8 18 65 54 52 49 52 45 33 45 47 45 44 45 42 40 39 41 45 45 44 36 32 36 40 41 40 43 41 34 33 25 25 30 27 32
43 53 58 58 56 58 61 56 32 20 52 65 61 62 50 40 35 46 48 51 48 51 54 46 45 51 51 45 43 36 38 44 45 48 47 51 37 34 26 20 25 30 27
49 58 62 59 54 54 59 55 59 43 33 30 27 34 61 67 47 42 46 49 49 51 54 50 48 53 53 46 41 43 45 51 55 52 48 55 43 35 27 32 37 40 24
60 53 48 41 51 56 56 60 61 66 66 29 26 26 13 35 54 53 40 48 47 46 51 51 56 55 54 50 42 41 38 48 49 40 42 54 46 38 37 35 39 34 27
62 57 52 47 40 47 61 65 59 55 63 72 57 48 43 38 34 39 30 32 27 27 41 45 58 58 54 53 45 30 19 15 46 51 38 35 36 32 36 33 41 31 27
45 34 29 33 42 37 31 50 66 69 74 74 88 64 64 50 62 59 54 38 39 32 36 30 41 57 46 53 41 42 43 47 45 62 52 39 35 33 32 38 43 35 32
33 24 15 23 30 37 34 39 41 44 53 58 63 86 69 61 58 45 49 46 45 42 45 44 37 39 45 40 42 36 48 47 61 59 67 52 52 47 36 41 36 41 38
33 24 25 33 40 31 37 38 41 42 47 50 63 56 67 76 65 54 58 58 62 65 70 60 47 37 38 31 37 38 46 58 60 64 66 65 51 42 29 36 38 34 34
Wind_Direction_850mb
150 149 147 147 144 142 140 139 135 132 131 131 130 135 140 139 138 136 132 126 121 112 103 99 98 98 99 100 102 98 91 84 83 83 80 62 47 40 42 31 47 41 38
135 157 151 150 147 143 142 141 138 136 134 133 131 132 134 134 132 130 127 123 115 106 98 94 92 89 83 79 74 74 77 78 79 79 78 57 41 28 13 13 25 16 12
89 164 157 153 151 147 146 145 144 143 142 139 133 133 133 132 129 127 124 118 112 106 100 91 87 83 77 72 68 69 75 80 79 69 52 43 39 13 7 2 1 6 1
109 181 167 158 156 154 151 151 151 149 149 144 139 137 135 133 132 130 127 122 114 106 98 90 81 78 75 66 64 66 76 86 84 70 49 10 10 347 354 358 2 353 353
224 195 181 164 160 159 158 157 157 157 156 151 147 144 142 140 140 136 133 125 118 110 101 92 78 68 65 58 54 64 83 100 103 96 72 59 350 310 341 346 355 354 346
222 192 186 170 165 164 165 164 163 164 163 161 157 154 150 150 147 143 139 131 125 118 112 99 88 58 38 20 20 38 73 119 122 117 120 261 307 303 322 340 339 338 338
222 200 187 177 170 169 171 171 170 170 170 169 167 164 161 161 159 155 151 143 132 119 92 34 346 336 343 329 334 331 338 221 183 152 173 212 289 316 319 328 325 321 323
229 204 186 184 175 175 177 180 178 176 178 176 177 176 174 175 174 171 170 172 167 186 314 313 311 310 312 309 311 306 299 286 260 197 233 289 287 303 311 318 320 310 307
224 185 180 189 180 180 180 186 186 185 186 187 184 185 186 189 189 189 191 203 226 256 290 298 304 301 301 303 301 304 303 298 289 264 244 263 278 290 297 312 316 303 295
230 180 179 190 190 186 185 186 193 193 193 198 195 194 197 200 202 205 210 223 247 268 284 292 294 296 299 302 303 308 307 315 318 289 250 257 286 280 290 297 313 304 288
171 191 186 193 199 196 192 189 193 198 201 203 207 206 206 210 212 219 231 246 261 276 283 288 293 299 303 306 305 307 310 347 355 326 234 230 270 280 297 299 306 304 286
85 195 191 192 200 209 203 198 198 201 205 208 211 215 215 218 222 232 241 257 264 275 291 288 292 298 302 307 310 301 291 327 343 2 272 291 301 270 288 293 301 306 286
54 329 226 202 212 212 212 206 208 209 211 212 215 216 220 222 227 233 242 255 280 295 332 319 312 305 291 313 330 312 307 312 305 297 301 306 306 280 289 295 305 305 283
349 69 192 207 186 193 211 212 220 232 227 224 222 221 223 226 230 237 249 264 284 286 310 317 318 324 299 313 327 330 328 324 306 292 293 289 292 285 289 299 305 302 281
180 57 190 183 171 162 183 209 218 233 244 245 234 231 228 229 233 233 241 250 258 271 281 298 311 312 314 323 316 322 314 316 307 280 265 266 275 279 284 297 302 306 278
182 201 159 177 178 180 187 186 199 225 234 240 236 238 239 240 239 240 235 236 250 262 271 280 289 298 306 302 303 313 316 309 314 310 290 268 268 274 279 286 296 317 295
219 207 218 206 186 200 199 215 215 206 211 232 239 240 243 241 246 243 238 238 242 245 246 261 274 284 279 279 292 296 301 310 311 321 315 300 294 279 274 273 289 294 302
226 216 218 229 210 183 157 222 220 221 197 200 212 220 233 244 249 250 250 249 250 248 245 248 255 263 265 271 277 280 297 310 305 314 311 303 305 299 280 263 278 278 289
236 226 231 237 228 226 220 186 273 235 223 220 216 218 227 239 250 255 255 256 252 251 251 257 263 267 273 274 278 291 301 301 296 303 306 299 304 298 299 281 279 289 290
235 223 221 217 210 226 238 234 209 272 241 250 243 232 222 230 240 254 258 261 253 248 250 252 258 266 275 281 283 286 289 289 284 286 293 288 298 290 280 283 276 288 301
224 208 210 212 206 211 219 221 226 202 257 237 216 233 237 237 236 245 257 261 264 253 249 249 251 259 265 276 275 279 283 290 282 282 284 280 285 281 269 276 274 270 287
219 217 211 206 199 204 209 213 219 220 216 257 247 235 222 229 234 246 265 269 264 258 251 255 257 256 263 264 270 282 296 302 312 288 283 275 273 271 260 274 266 267 283
207 207 215 222 217 214 214 212 212 212 218 216 241 236 250 267 268 257 258 274 267 270 259 255 260 255 261 271 265 262 275 301 316 312 301 276 270 265 250 262 268 265 263
190 192 203 216 224 233 235 222 224 227 220 224 237 253 259 270 264 254 262 252 260 279 258 252 248 252 257 272 273 253 266 264 285 294 296 281 269 262 260 258 265 262 258
180 193 224 250 244 244 243 248 250 244 245 243 227 234 245 242 239 244 246 237 251 272 276 267 257 256 262 296 269 254 248 262 287 271 278 279 270 267 265 256 259 247 258
180 208 236 229 243 258 257 251 252 257 258 256 249 233 233 256 255 247 243 249 260 270 272 272 265 252 271 296 264 258 245 265 277 273 270 275 270 271 272 257 250 246 248